Hourly Weather Roundup
Issued by NWS Central Illinois

Home | Current Version | Previous Version | Graphics & Text | Print | Product List | Glossary On
Versions: 1 2 3 4 5 6 7 8 9 10 11 12 13 14 15 16 17 18 19 20 21 22 23 24 25 26 27 28 29 30 31 32 33 34 35 36 37 38 39 40 41 42 43 44 45 46 47 48 49 50
308
NZUS43 KILX 241710
HWRILX

AREA WEATHER ROUNDUP
NATIONAL WEATHER SERVICE, LINCOLN IL
1200 PM CDT FRI MAR 24 2017


CITY           SKY/WX    TMP DP  RH WIND       PRES   REMARKS
BLOOMINGTON    SUNNY     75  54  47 SW26G35   29.97F
CHAMPAIGN      SUNNY     75  55  49 S25G36    30.03S
DECATUR        SUNNY     73  55  53 S28G36    30.01F
EFFINGHAM      PTSUNNY   70  59  68 S14G28    30.09S
FLORA          CLOUDY    71  59  66 S24G32    30.10F
GALESBURG      SUNNY     77  44  30 SW24G32   29.89F
JACKSONVILLE   SUNNY     74  54  48 S17G28    29.95S
LACON          SUNNY     74  51  44 SW15G23   29.92F
LAWRENCEVILLE  CLOUDY    69  57  65 S21G29    30.14F
LITCHFIELD     SUNNY     69  59  69 S29G35    30.01F
$$


CITY           SKY/WX    TMP DP  RH WIND       PRES   REMARKS
LINCOLN        SUNNY     76  57  52 SW18G31   29.96F
MACOMB         SUNNY     78  43  28 SW22G33   29.93S
MATTOON        MOSUNNY   70  58  65 S18G32    30.06F
MT CARMEL AP   CLOUDY    69  56  62 SW22G29   30.13S
OLNEY-NOBLE AP CLOUDY    70  61  73 S17G29    30.11F
PARIS          SUNNY     73  58  60 S24G32    30.08F
PEORIA         SUNNY     77  51  40 SW18      29.93F
PONTIAC        SUNNY     76  52  43 SW23G33   29.96F
RANTOUL        SUNNY     76  57  51 SW23G29   30.01F
SPRINGFIELD    SUNNY     76  55  48 S16G31    29.97F
TAYLORVILLE    SUNNY     72  57  60 S24G36    30.00F
$$

...REGIONAL REPORTS...


CITY           SKY/WX    TMP DP  RH WIND       PRES   REMARKS
CHICAGO O`HARE MOSUNNY   75  49  39 SW18G28   29.91S
KANKAKEE       SUNNY     76  53  44 SW24G32   29.97F
MOLINE         SUNNY     79  44  28 SW23G32   29.87R
MOUNT STERLING SUNNY     76  48  37 SW17G25   29.92S
MOUNT VERNON   CLOUDY    69  59  70 S22G29    30.10F
PITTSFIELD     SUNNY     77  50  39 S17G26    29.95S
QUINCY         MOSUNNY   74  43  32 SW21G31   29.92R
ROCKFORD       MOSUNNY   76  46  34 SW21G31   29.89S
$$


CITY           SKY/WX    TMP DP  RH WIND       PRES   REMARKS
BURLINGTON     SUNNY     74  46  36 SW18G30   29.89R
CEDAR RAPIDS   CLOUDY    71  49  45 SW18G25   29.84S
DES MOINES     LGT RAIN  51  47  86 NW8       29.90R FOG
KIRKSVILLE     CLOUDY    67  32  27 SW22G28   29.93R
OTTUMWA        CLOUDY    74  43  32 SW17G26   29.86R
ST LOUIS       PTSUNNY   77  54  44 S23G31    29.98F
$$


CITY           SKY/WX    TMP DP  RH WIND       PRES   REMARKS
TERRE HAUTE    PTSUNNY   70  55  59 SW16G38   30.11S
EVANSVILLE     CLOUDY    72  55  55 SW22G32   30.17S
INDIANAPOLIS   MOSUNNY   72  55  55 SW21G28   30.11F
LAFAYETTE      SUNNY     71  56  58 S16G28    30.04F
MADISON        CLOUDY    60  48  64 N7        29.89R
MILWAUKEE      PTSUNNY   56  43  61 NE9       29.90S
$$






USA.gov is the U.S. government's official web portal to all federal, state and local government web resources and services.